Regional Weather Roundup
Issued by NWS

Home | Current Version | Previous Version | Text Only | Print | Product List | Glossary On
Versions: 1 2 3 4 5 6 7 8 9 10 11 12 13 14 15 16 17 18 19 20 21 22 23 24 25 26 27 28 29 30 31 32 33 34 35 36 37 38 39 40 41 42 43 44 45 46 47 48 49 50
000
ASUS45 KREV 232210
RWRNV
NEVADA REGIONAL WEATHER ROUNDUP
NATIONAL WEATHER SERVICE RENO NV
300 PM PDT THU MAR 23 2017

NOTE: "FAIR" INDICATES FEW OR NO CLOUDS BELOW 12,000 FEET WITH NO
SIGNIFICANT WEATHER AND/OR OBSTRUCTIONS TO VISIBILITY.

NVZ001-003-004-232300-
WESTERN NEVADA

CITY           SKY/WX    TMP DP  RH WIND       PRES   REMARKS
RENO           PTSUNNY   59  17  19 NW17G23   30.07F
CARSON CITY    FAIR      54  12  19 NW14      30.09F
MINDEN         FAIR      54  23  30 W14       30.09F
FALLON         MOSUNNY   56  19  23 VRB3      30.06F
LOVELOCK       SUNNY     56  25  30 VRB6      30.06F
HAWTHORNE      SUNNY     55  19  24 W7G14     30.06F
$$

NVZ002-CAZ072-073-232300-
NORTHERN AND CENTRAL SIERRA

CITY           SKY/WX    TMP DP  RH WIND       PRES   REMARKS
S. LAKE TAHOE  SUNNY     44  22  41 S13       30.12S
TRUCKEE        MOSUNNY   43  25  49 W10       30.13S
SQUAW VLY 8000   N/A     32  28  86 SW9         N/A
SUSANVILLE     SUNNY     52  30  43 SW15      30.09F
MAMMOTH LAKES  FAIR      46  13  26 CALM      30.11F
BRIDGEPORT       N/A     47  17  30 SW14      30.07F
$$

NVZ030-031-036-232300-
NORTHERN NEVADA

CITY           SKY/WX    TMP DP  RH WIND       PRES   REMARKS
ELKO           PTSUNNY   50  25  37 W7        30.03F
WINNEMUCCA     MOSUNNY   53  26  35 SW8       30.05F
WENDOVER       MOSUNNY   57  21  24 NW21      29.94R
$$

NVZ035-037-232300-
CENTRAL NEVADA

CITY           SKY/WX    TMP DP  RH WIND       PRES   REMARKS
ELY            MOSUNNY   46  28  49 W20G26    29.98S
EUREKA           N/A     44  29  55 N10       30.06S
$$

NVZ013-014-232300-
SOUTH CENTRAL NEVADA

CITY           SKY/WX    TMP DP  RH WIND       PRES   REMARKS
TONOPAH        SUNNY     55  23  28 N20G25    30.05F
$$

NVZ017-020-022-232300-
SOUTHERN NEVADA

CITY           SKY/WX    TMP DP  RH WIND       PRES   REMARKS
LAS VEGAS      PTSUNNY   71  25  17 NW22      29.94S
N. LAS VEGAS   MOSUNNY   68  29  23 N14G22    29.94S
NELLIS AFB     MOSUNNY   70  32  24 NW23G29   29.93F
HENDERSON      MOSUNNY   67  29  24 NW17G30   29.97S
MERCURY        MOSUNNY   65  27  23 W13G20    29.98F
$$



USA.gov is the U.S. government's official web portal to all federal, state and local government web resources and services.